Location: Unspecified
(43.4680°N, 87.1740°E)
Time: 09:43:45
(UTC+00:00)

Cosmos 1602 Rocket - Pass Details

Date: 17 January 2020
Orbit: 603 x 634 km, 82.5° (Epoch: 18 February)

Event Time Altitude Azimuth Distance (km) Brightness Sun altitude
Rises 12:40:13 0° 193° (SSW) 2,897 7.4 -17.5°
Reaches altitude 10° 12:42:27 10° 196° (SSW) 1,990 6.5 -17.9°
Maximum altitude 12:46:51 68° 279° (W) 673 3.9 -18.6°
Drops below altitude 10° 12:51:14 10° 3° (N) 1,987 6.0 -19.4°
Enters shadow 12:52:45 - 5° (N) 2,597 6.6 -19.7°
